Time,TemperatureF,DewpointF,PressureIn,WindDirection,WindDirectionDegrees,WindSpeedMPH,WindSpeedGustMPH,Humidity,HourlyPrecipIn,Conditions,Clouds,dailyrainin,SoftwareType,DateUTC
2013-02-05 00:00:00,44.5,40.6,29.73,NNW,338,2.0,5.0,86,0.00,,,0.00,VWS V14.01,2013-02-05 08:00:00,
2013-02-05 00:02:00,42.7,39.4,29.67,NNW,336,0.0,8.0,88,0.00,,,0.00,VWS V14.01,2013-02-05 08:02:00,
2013-02-05 00:07:00,42.9,39.6,29.67,NNW,335,0.0,8.0,88,0.00,,,0.00,VWS V14.01,2013-02-05 08:07:00,
2013-02-05 00:12:00,43.4,40.1,29.67,NNW,334,0.0,8.0,88,0.00,,,0.00,VWS V14.01,2013-02-05 08:12:00,
2013-02-05 00:17:00,43.5,39.9,29.67,NNW,334,0.0,8.0,87,0.00,,,0.00,VWS V14.01,2013-02-05 08:17:00,
2013-02-05 00:22:00,43.5,39.9,29.66,NNW,334,0.0,8.0,87,0.00,,,0.00,VWS V14.01,2013-02-05 08:22:00,
2013-02-05 00:27:00,43.5,39.6,29.67,NNW,334,0.0,8.0,86,0.00,,,0.00,VWS V14.01,2013-02-05 08:27:00,
2013-02-05 00:30:00,43.9,40.0,29.72,NNW,338,0.0,2.0,86,0.00,,,0.00,VWS V14.01,2013-02-05 08:30:00,
2013-02-05 00:32:00,43.2,39.3,29.67,NNW,334,0.0,8.0,86,0.00,,,0.00,VWS V14.01,2013-02-05 08:32:00,
2013-02-05 00:37:00,42.9,39.0,29.67,NNW,334,0.0,8.0,86,0.00,,,0.00,VWS V14.01,2013-02-05 08:37:00,
2013-02-05 00:42:00,42.5,38.6,29.67,NNW,334,0.0,8.0,86,0.00,,,0.00,VWS V14.01,2013-02-05 08:42:00,
2013-02-05 00:47:00,42.5,38.9,29.67,NNW,334,1.0,8.0,87,0.00,,,0.00,VWS V14.01,2013-02-05 08:47:00,
2013-02-05 00:52:00,42.4,38.8,29.66,NNW,334,0.0,8.0,87,0.00,,,0.00,VWS V14.01,2013-02-05 08:52:00,
2013-02-05 00:57:00,42.3,38.7,29.66,NNW,334,2.0,8.0,87,0.00,,,0.00,VWS V14.01,2013-02-05 08:57:00,
2013-02-05 01:00:00,43.2,39.6,29.73,NNW,338,1.0,2.0,87,0.00,,,0.00,VWS V14.01,2013-02-05 09:00:00,
2013-02-05 01:02:00,42.4,38.8,29.66,NNW,334,0.0,8.0,87,0.00,,,0.00,VWS V14.01,2013-02-05 09:02:00,
2013-02-05 01:07:00,42.5,38.9,29.66,NNW,334,1.0,8.0,87,0.00,,,0.00,VWS V14.01,2013-02-05 09:07:00,
2013-02-05 01:12:00,42.5,38.9,29.66,NNW,334,1.0,8.0,87,0.00,,,0.00,VWS V14.01,2013-02-05 09:12:00,
2013-02-05 01:17:00,42.5,38.9,29.66,NNW,334,0.0,8.0,87,0.00,,,0.00,VWS V14.01,2013-02-05 09:17:00,
2013-02-05 01:22:00,42.5,38.9,29.66,NNW,334,0.0,8.0,87,0.00,,,0.00,VWS V14.01,2013-02-05 09:22:00,
2013-02-05 01:27:00,42.4,38.8,29.66,NNW,334,0.0,8.0,87,0.00,,,0.00,VWS V14.01,2013-02-05 09:27:00,
2013-02-05 01:30:00,42.8,39.2,29.72,NNW,338,1.0,2.0,87,0.00,,,0.00,VWS V14.01,2013-02-05 09:30:00,
2013-02-05 01:32:00,42.4,38.8,29.66,NNW,334,1.0,8.0,87,0.00,,,0.00,VWS V14.01,2013-02-05 09:32:00,
2013-02-05 01:37:00,42.4,38.8,29.66,NNW,334,0.0,8.0,87,0.00,,,0.00,VWS V14.01,2013-02-05 09:37:00,
2013-02-05 01:42:00,42.4,39.1,29.66,NNW,334,0.0,8.0,88,0.00,,,0.00,VWS V14.01,2013-02-05 09:42:00,
2013-02-05 01:47:00,42.4,39.1,29.67,NNW,334,0.0,8.0,88,0.00,,,0.00,VWS V14.01,2013-02-05 09:47:00,
2013-02-05 01:52:00,42.5,39.2,29.67,NNW,334,0.0,8.0,88,0.00,,,0.00,VWS V14.01,2013-02-05 09:52:00,
2013-02-05 01:57:00,42.5,38.9,29.67,NNW,334,0.0,8.0,87,0.00,,,0.00,VWS V14.01,2013-02-05 09:57:00,
2013-02-05 02:00:00,42.5,39.5,29.72,NNW,338,1.0,4.0,89,0.00,,,0.00,VWS V14.01,2013-02-05 10:00:00,
2013-02-05 02:02:00,42.5,39.2,29.67,NNW,334,0.0,8.0,88,0.00,,,0.00,VWS V14.01,2013-02-05 10:02:00,
2013-02-05 02:07:00,42.6,39.3,29.66,NNW,334,0.0,8.0,88,0.00,,,0.00,VWS V14.01,2013-02-05 10:07:00,
2013-02-05 02:12:00,42.6,39.0,29.66,NNW,334,0.0,8.0,87,0.00,,,0.00,VWS V14.01,2013-02-05 10:12:00,
2013-02-05 02:17:00,42.8,39.2,29.66,NNW,334,0.0,8.0,87,0.00,,,0.00,VWS V14.01,2013-02-05 10:17:00,
2013-02-05 02:22:00,42.8,39.2,29.66,NNW,334,0.0,8.0,87,0.00,,,0.00,VWS V14.01,2013-02-05 10:22:00,
2013-02-05 02:27:00,42.8,39.2,29.66,NNW,334,0.0,8.0,87,0.00,,,0.00,VWS V14.01,2013-02-05 10:27:00,
2013-02-05 02:30:00,42.2,39.2,29.72,NNW,338,0.0,2.0,89,0.00,,,0.00,VWS V14.01,2013-02-05 10:30:00,
2013-02-05 02:32:00,42.9,39.3,29.66,NNW,334,0.0,8.0,87,0.00,,,0.00,VWS V14.01,2013-02-05 10:32:00,
2013-02-05 02:37:00,42.7,39.1,29.65,NNW,334,0.0,8.0,87,0.00,,,0.00,VWS V14.01,2013-02-05 10:37:00,
2013-02-05 02:42:00,42.7,39.1,29.65,NNW,334,0.0,8.0,87,0.00,,,0.00,VWS V14.01,2013-02-05 10:42:00,
2013-02-05 02:47:00,42.6,39.0,29.65,NNW,334,0.0,8.0,87,0.00,,,0.00,VWS V14.01,2013-02-05 10:47:00,
2013-02-05 02:52:00,42.8,38.9,29.66,NNW,334,0.0,8.0,86,0.00,,,0.00,VWS V14.01,2013-02-05 10:52:00,
2013-02-05 02:57:00,42.9,39.6,29.65,NNW,334,0.0,8.0,88,0.00,,,0.00,VWS V14.01,2013-02-05 10:57:00,
2013-02-05 03:00:00,41.9,38.9,29.72,NNW,338,0.0,0.0,89,0.00,,,0.00,VWS V14.01,2013-02-05 11:00:00,
2013-02-05 03:02:00,43.2,39.6,29.65,NNW,334,0.0,8.0,87,0.00,,,0.00,VWS V14.01,2013-02-05 11:02:00,
2013-02-05 03:07:00,43.2,39.6,29.65,NNW,334,0.0,8.0,87,0.00,,,0.00,VWS V14.01,2013-02-05 11:07:00,
2013-02-05 03:12:00,43.6,40.0,29.65,NNW,334,0.0,8.0,87,0.00,,,0.00,VWS V14.01,2013-02-05 11:12:00,
2013-02-05 03:17:00,43.7,39.8,29.65,NNW,334,0.0,8.0,86,0.00,,,0.00,VWS V14.01,2013-02-05 11:17:00,
2013-02-05 03:22:00,43.8,40.2,29.65,NNW,334,0.0,8.0,87,0.00,,,0.00,VWS V14.01,2013-02-05 11:22:00,
2013-02-05 03:27:00,43.7,39.8,29.65,NNW,334,0.0,8.0,86,0.00,,,0.00,VWS V14.01,2013-02-05 11:27:00,
2013-02-05 03:30:00,41.8,38.8,29.71,NNW,338,0.0,0.0,89,0.00,,,0.00,VWS V14.01,2013-02-05 11:30:00,
2013-02-05 03:32:00,43.6,39.7,29.65,NNW,334,1.0,8.0,86,0.00,,,0.00,VWS V14.01,2013-02-05 11:32:00,
2013-02-05 03:37:00,43.5,39.6,29.64,NNW,334,0.0,8.0,86,0.00,,,0.00,VWS V14.01,2013-02-05 11:37:00,
2013-02-05 03:42:00,43.4,39.5,29.65,NNW,334,0.0,8.0,86,0.00,,,0.00,VWS V14.01,2013-02-05 11:42:00,
2013-02-05 03:47:00,43.6,39.7,29.65,NNW,334,0.0,8.0,86,0.00,,,0.00,VWS V14.01,2013-02-05 11:47:00,
2013-02-05 03:52:00,43.7,39.8,29.65,NNW,334,1.0,8.0,86,0.00,,,0.00,VWS V14.01,2013-02-05 11:52:00,
2013-02-05 03:58:00,43.7,39.8,29.64,NNW,334,0.0,8.0,86,0.00,,,0.00,VWS V14.01,2013-02-05 11:58:00,
2013-02-05 04:00:00,41.8,39.1,29.71,NNW,338,0.0,0.0,90,0.00,,,0.00,VWS V14.01,2013-02-05 12:00:00,
2013-02-05 04:03:00,43.6,39.7,29.64,NNW,334,0.0,8.0,86,0.00,,,0.00,VWS V14.01,2013-02-05 12:03:00,
2013-02-05 04:08:00,43.7,39.8,29.64,NNW,334,0.0,8.0,86,0.00,,,0.00,VWS V14.01,2013-02-05 12:08:00,
2013-02-05 04:13:00,43.8,39.9,29.64,NNW,334,0.0,8.0,86,0.00,,,0.00,VWS V14.01,2013-02-05 12:13:00,
2013-02-05 04:18:00,43.9,40.0,29.65,NNW,334,1.0,8.0,86,0.00,,,0.00,VWS V14.01,2013-02-05 12:18:00,
2013-02-05 04:23:00,43.9,40.0,29.65,NNW,334,0.0,8.0,86,0.00,,,0.00,VWS V14.01,2013-02-05 12:23:00,
2013-02-05 04:28:00,44.0,40.1,29.65,NNW,334,0.0,8.0,86,0.00,,,0.00,VWS V14.01,2013-02-05 12:28:00,
2013-02-05 04:30:00,41.7,39.0,29.70,NNW,338,0.0,0.0,90,0.00,,,0.00,VWS V14.01,2013-02-05 12:30:00,
2013-02-05 04:33:00,44.0,39.8,29.65,NNW,334,0.0,8.0,85,0.00,,,0.00,VWS V14.01,2013-02-05 12:33:00,
2013-02-05 04:38:00,44.1,40.2,29.65,NNW,334,0.0,8.0,86,0.00,,,0.00,VWS V14.01,2013-02-05 12:38:00,
2013-02-05 04:43:00,44.2,40.3,29.64,NNW,334,0.0,8.0,86,0.00,,,0.00,VWS V14.01,2013-02-05 12:43:00,
2013-02-05 04:48:00,44.1,39.9,29.64,NNW,334,1.0,8.0,85,0.00,,,0.00,VWS V14.01,2013-02-05 12:48:00,
2013-02-05 04:53:00,44.1,39.9,29.64,NNW,334,1.0,8.0,85,0.00,,,0.00,VWS V14.01,2013-02-05 12:53:00,
2013-02-05 04:58:00,44.2,39.7,29.64,NNW,334,2.0,8.0,84,0.00,,,0.00,VWS V14.01,2013-02-05 12:58:00,
2013-02-05 05:00:00,41.6,39.2,29.70,NNW,338,0.0,0.0,91,0.00,,,0.00,VWS V14.01,2013-02-05 13:00:00,
2013-02-05 05:03:00,44.2,39.7,29.64,NNW,334,0.0,8.0,84,0.00,,,0.00,VWS V14.01,2013-02-05 13:03:00,
2013-02-05 05:08:00,44.3,40.1,29.64,NNW,334,0.0,8.0,85,0.00,,,0.00,VWS V14.01,2013-02-05 13:08:00,
2013-02-05 05:13:00,44.4,39.9,29.64,NNW,334,1.0,8.0,84,0.00,,,0.00,VWS V14.01,2013-02-05 13:13:00,
2013-02-05 05:18:00,44.6,40.1,29.64,NNW,334,1.0,8.0,84,0.00,,,0.00,VWS V14.01,2013-02-05 13:18:00,
2013-02-05 05:23:00,44.6,40.1,29.64,NNW,334,1.0,8.0,84,0.00,,,0.00,VWS V14.01,2013-02-05 13:23:00,
2013-02-05 05:28:00,44.7,40.2,29.63,NNW,334,0.0,8.0,84,0.00,,,0.00,VWS V14.01,2013-02-05 13:28:00,
2013-02-05 05:30:00,41.4,39.0,29.70,NNW,338,0.0,0.0,91,0.00,,,0.00,VWS V14.01,2013-02-05 13:30:00,
2013-02-05 05:33:00,44.9,40.1,29.64,NNW,334,0.0,8.0,83,0.00,,,0.00,VWS V14.01,2013-02-05 13:33:00,
2013-02-05 05:38:00,44.9,40.1,29.64,NNW,334,0.0,8.0,83,0.00,,,0.00,VWS V14.01,2013-02-05 13:38:00,
2013-02-05 05:43:00,44.9,40.1,29.63,NNW,334,4.0,8.0,83,0.00,,,0.00,VWS V14.01,2013-02-05 13:43:00,
2013-02-05 05:48:00,45.2,40.3,29.63,NNW,334,0.0,8.0,83,0.00,,,0.00,VWS V14.01,2013-02-05 13:48:00,
2013-02-05 05:53:00,45.2,40.3,29.64,NNW,334,0.0,8.0,83,0.00,,,0.00,VWS V14.01,2013-02-05 13:53:00,
2013-02-05 05:58:00,45.3,40.1,29.63,NNW,334,1.0,8.0,82,0.00,,,0.00,VWS V14.01,2013-02-05 13:58:00,
2013-02-05 06:00:00,41.3,38.6,29.70,NNW,338,0.0,0.0,90,0.00,,,0.00,VWS V14.01,2013-02-05 14:00:00,
2013-02-05 06:03:00,45.3,40.1,29.64,NNW,334,3.0,8.0,82,0.00,,,0.00,VWS V14.01,2013-02-05 14:03:00,
2013-02-05 06:08:00,45.4,40.2,29.64,NNW,334,1.0,8.0,82,0.00,,,0.00,VWS V14.01,2013-02-05 14:08:00,
2013-02-05 06:13:00,45.5,40.0,29.64,NNW,334,1.0,8.0,81,0.00,,,0.00,VWS V14.01,2013-02-05 14:13:00,
2013-02-05 06:18:00,45.5,40.0,29.64,NNW,334,2.0,8.0,81,0.00,,,0.00,VWS V14.01,2013-02-05 14:18:00,
2013-02-05 06:23:00,45.5,39.7,29.64,NNW,334,2.0,8.0,80,0.00,,,0.00,VWS V14.01,2013-02-05 14:23:00,
2013-02-05 06:28:00,45.5,39.7,29.64,NNW,334,0.0,8.0,80,0.00,,,0.00,VWS V14.01,2013-02-05 14:28:00,
2013-02-05 06:30:00,41.2,38.8,29.70,NNW,338,0.0,0.0,91,0.00,,,0.00,VWS V14.01,2013-02-05 14:30:00,
2013-02-05 06:33:00,45.4,39.6,29.64,NNW,334,1.0,8.0,80,0.00,,,0.00,VWS V14.01,2013-02-05 14:33:00,
2013-02-05 06:38:00,45.5,39.7,29.64,NNW,335,0.0,8.0,80,0.00,,,0.00,VWS V14.01,2013-02-05 14:38:00,
2013-02-05 06:43:00,45.5,39.7,29.64,NNW,334,1.0,8.0,80,0.00,,,0.00,VWS V14.01,2013-02-05 14:43:00,
2013-02-05 06:48:00,45.3,39.5,29.64,NNW,334,0.0,8.0,80,0.00,,,0.00,VWS V14.01,2013-02-05 14:48:00,
2013-02-05 06:53:00,45.4,39.3,29.64,NNW,334,2.0,8.0,79,0.00,,,0.00,VWS V14.01,2013-02-05 14:53:00,
2013-02-05 06:58:00,45.3,39.2,29.64,NNW,334,1.0,8.0,79,0.00,,,0.00,VWS V14.01,2013-02-05 14:58:00,
2013-02-05 07:00:00,41.5,39.1,29.70,NNW,338,0.0,0.0,91,0.00,,,0.00,VWS V14.01,2013-02-05 15:00:00,
2013-02-05 07:03:00,45.1,39.0,29.64,NNW,334,0.0,8.0,79,0.00,,,0.00,VWS V14.01,2013-02-05 15:03:00,
2013-02-05 07:08:00,45.1,39.0,29.64,NNW,334,0.0,8.0,79,0.00,,,0.00,VWS V14.01,2013-02-05 15:08:00,
2013-02-05 07:13:00,45.3,39.2,29.64,NNW,334,0.0,8.0,79,0.00,,,0.00,VWS V14.01,2013-02-05 15:13:00,
2013-02-05 07:18:00,45.2,39.1,29.64,NNW,334,0.0,8.0,79,0.00,,,0.00,VWS V14.01,2013-02-05 15:18:00,
2013-02-05 07:23:00,45.0,38.6,29.64,NNW,334,0.0,8.0,78,0.00,,,0.00,VWS V14.01,2013-02-05 15:23:00,
2013-02-05 07:28:00,45.0,38.6,29.64,NNW,334,0.0,8.0,78,0.00,,,0.00,VWS V14.01,2013-02-05 15:28:00,
2013-02-05 07:30:00,41.2,38.8,29.70,NNW,338,1.0,3.0,91,0.00,,,0.00,VWS V14.01,2013-02-05 15:30:00,
2013-02-05 07:33:00,44.9,38.5,29.64,NNW,333,1.0,8.0,78,0.00,,,0.00,VWS V14.01,2013-02-05 15:33:00,
2013-02-05 07:38:00,44.9,38.5,29.64,NNW,333,0.0,8.0,78,0.00,,,0.00,VWS V14.01,2013-02-05 15:38:00,
2013-02-05 07:43:00,45.1,39.0,29.65,NNW,333,1.0,8.0,79,0.00,,,0.00,VWS V14.01,2013-02-05 15:43:00,
2013-02-05 07:56:00,45.2,38.8,29.64,NNW,338,1.0,5.0,78,0.00,,,0.01,VWS V14.01,2013-02-05 15:56:00,
2013-02-05 08:00:00,40.6,38.5,29.71,NNW,338,1.0,5.0,92,0.01,,,0.00,VWS V14.01,2013-02-05 16:00:00,
2013-02-05 08:01:00,45.5,39.4,29.65,NNW,333,4.0,5.0,79,0.00,,,0.00,VWS V14.01,2013-02-05 16:01:00,
2013-02-05 08:06:00,45.8,39.7,29.65,NNW,333,2.0,6.0,79,0.00,,,0.01,VWS V14.01,2013-02-05 16:06:00,
2013-02-05 08:11:00,46.0,39.9,29.66,NNW,334,4.0,6.0,79,0.00,,,0.00,VWS V14.01,2013-02-05 16:11:00,
2013-02-05 08:16:00,46.0,39.9,29.65,NNW,334,4.0,6.0,79,0.00,,,0.00,VWS V14.01,2013-02-05 16:16:00,
2013-02-05 08:21:00,46.1,40.0,29.66,NNW,335,3.0,6.0,79,0.00,,,0.00,VWS V14.01,2013-02-05 16:21:00,
2013-02-05 08:26:00,46.5,40.0,29.65,NNW,334,2.0,6.0,78,0.00,,,0.00,VWS V14.01,2013-02-05 16:26:00,
2013-02-05 08:30:00,41.1,39.0,29.72,NNW,338,0.0,3.0,92,0.01,,,0.00,VWS V14.01,2013-02-05 16:30:00,
2013-02-05 08:31:00,46.6,40.5,29.65,NNW,336,3.0,6.0,79,0.00,,,0.00,VWS V14.01,2013-02-05 16:31:00,
2013-02-05 08:36:00,46.9,40.4,29.66,NNW,335,4.0,6.0,78,0.00,,,0.00,VWS V14.01,2013-02-05 16:36:00,
2013-02-05 08:41:00,47.2,40.7,29.67,NNW,335,3.0,6.0,78,0.00,,,0.00,VWS V14.01,2013-02-05 16:41:00,
2013-02-05 08:46:00,47.4,40.9,29.67,NNW,335,3.0,6.0,78,0.00,,,0.00,VWS V14.01,2013-02-05 16:46:00,
2013-02-05 08:51:00,47.8,41.0,29.66,NNW,335,3.0,6.0,77,0.00,,,0.00,VWS V14.01,2013-02-05 16:51:00,
2013-02-05 08:56:00,48.0,40.8,29.67,NNW,335,1.0,6.0,76,0.00,,,0.00,VWS V14.01,2013-02-05 16:56:00,
2013-02-05 09:00:00,41.8,39.7,29.72,NNW,338,0.0,1.0,92,0.01,,,0.00,VWS V14.01,2013-02-05 17:00:00,
2013-02-05 09:01:00,48.1,40.9,29.67,NNW,336,5.0,6.0,76,0.00,,,0.00,VWS V14.01,2013-02-05 17:01:00,
2013-02-05 09:06:00,48.2,41.0,29.67,NNW,335,5.0,6.0,76,0.00,,,0.00,VWS V14.01,2013-02-05 17:06:00,
2013-02-05 09:11:00,48.3,41.1,29.67,NNW,336,3.0,6.0,76,0.00,,,0.00,VWS V14.01,2013-02-05 17:11:00,
2013-02-05 09:16:00,48.4,41.2,29.66,NNW,335,3.0,7.0,76,0.00,,,0.00,VWS V14.01,2013-02-05 17:16:00,
2013-02-05 09:21:00,48.3,41.1,29.67,NNW,335,5.0,7.0,76,0.00,,,0.00,VWS V14.01,2013-02-05 17:21:00,
2013-02-05 09:26:00,48.5,41.3,29.67,NNW,335,3.0,7.0,76,0.00,,,0.00,VWS V14.01,2013-02-05 17:26:00,
2013-02-05 09:30:00,42.1,40.2,29.73,NNW,338,0.0,0.0,93,0.00,,,0.00,VWS V14.01,2013-02-05 17:30:00,
2013-02-05 09:31:00,48.5,41.3,29.67,NNW,336,5.0,7.0,76,0.00,,,0.00,VWS V14.01,2013-02-05 17:31:00,
2013-02-05 09:36:00,48.6,41.0,29.67,NNW,336,5.0,7.0,75,0.00,,,0.00,VWS V14.01,2013-02-05 17:36:00,
2013-02-05 09:41:00,48.7,41.1,29.67,NNW,336,3.0,7.0,75,0.00,,,0.00,VWS V14.01,2013-02-05 17:41:00,
2013-02-05 09:46:00,49.0,41.4,29.67,NNW,336,2.0,7.0,75,0.00,,,0.01,VWS V14.01,2013-02-05 17:46:00,
2013-02-05 09:51:00,49.1,41.2,29.67,NNW,336,1.0,7.0,74,0.00,,,0.00,VWS V14.01,2013-02-05 17:51:00,
2013-02-05 09:56:00,49.4,41.8,29.67,NNW,336,3.0,7.0,75,0.00,,,0.00,VWS V14.01,2013-02-05 17:56:00,
2013-02-05 10:00:00,42.7,40.8,29.74,NNW,338,0.0,2.0,93,0.00,,,0.00,VWS V14.01,2013-02-05 18:00:00,
2013-02-05 10:01:00,49.8,41.5,29.67,NNW,336,3.0,7.0,73,0.00,,,0.00,VWS V14.01,2013-02-05 18:01:00,
2013-02-05 10:06:00,49.8,41.5,29.68,NNW,336,4.0,7.0,73,0.00,,,0.00,VWS V14.01,2013-02-05 18:06:00,
2013-02-05 10:11:00,50.1,41.8,29.67,NNW,336,1.0,7.0,73,0.00,,,0.00,VWS V14.01,2013-02-05 18:11:00,
2013-02-05 10:16:00,50.4,42.1,29.67,NNW,336,3.0,7.0,73,0.00,,,0.00,VWS V14.01,2013-02-05 18:16:00,
2013-02-05 10:21:00,50.8,42.1,29.67,NNW,336,4.0,7.0,72,0.00,,,0.00,VWS V14.01,2013-02-05 18:21:00,
2013-02-05 10:26:00,51.0,41.9,29.67,NNW,335,4.0,8.0,71,0.00,,,0.00,VWS V14.01,2013-02-05 18:26:00,
2013-02-05 10:30:00,43.1,41.2,29.74,NNW,338,0.0,3.0,93,0.00,,,0.00,VWS V14.01,2013-02-05 18:30:00,
2013-02-05 10:31:00,51.2,42.1,29.68,NNW,334,4.0,8.0,71,0.00,,,0.00,VWS V14.01,2013-02-05 18:31:00,
2013-02-05 10:36:00,51.3,41.9,29.68,NNW,334,4.0,8.0,70,0.00,,,0.00,VWS V14.01,2013-02-05 18:36:00,
2013-02-05 10:41:00,51.5,42.0,29.68,NNW,334,2.0,8.0,70,0.00,,,0.00,VWS V14.01,2013-02-05 18:41:00,
2013-02-05 10:46:00,51.8,42.3,29.67,NNW,332,4.0,8.0,70,0.00,,,0.00,VWS V14.01,2013-02-05 18:46:00,
2013-02-05 10:51:00,51.7,42.2,29.67,NNW,342,5.0,8.0,70,0.00,,,0.00,VWS V14.01,2013-02-05 18:51:00,
2013-02-05 10:56:00,51.9,42.8,29.67,NNW,342,5.0,8.0,71,0.00,,,0.00,VWS V14.01,2013-02-05 18:56:00,
2013-02-05 11:00:00,43.5,41.6,29.74,NNW,338,0.0,2.0,93,0.00,,,0.00,VWS V14.01,2013-02-05 19:00:00,
2013-02-05 11:01:00,52.1,42.6,29.67,NNW,346,5.0,8.0,70,0.00,,,0.00,VWS V14.01,2013-02-05 19:01:00,
2013-02-05 11:06:00,52.3,42.8,29.68,NNW,341,6.0,8.0,70,0.00,,,0.00,VWS V14.01,2013-02-05 19:06:00,
2013-02-05 11:11:00,52.6,42.7,29.67,NNW,341,4.0,8.0,69,0.00,,,0.00,VWS V14.01,2013-02-05 19:11:00,
2013-02-05 11:16:00,52.8,42.9,29.67,NNW,341,3.0,8.0,69,0.00,,,0.00,VWS V14.01,2013-02-05 19:16:00,
2013-02-05 11:21:00,53.0,42.7,29.68,NNW,340,4.0,8.0,68,0.00,,,0.00,VWS V14.01,2013-02-05 19:21:00,
2013-02-05 11:26:00,52.8,42.9,29.67,NNW,333,4.0,9.0,69,0.00,,,0.00,VWS V14.01,2013-02-05 19:26:00,
2013-02-05 11:30:00,44.6,42.7,29.74,NNW,338,0.0,4.0,93,0.00,,,0.00,VWS V14.01,2013-02-05 19:30:00,
2013-02-05 11:31:00,52.8,42.9,29.67,NNW,340,7.0,9.0,69,0.00,,,0.00,VWS V14.01,2013-02-05 19:31:00,
2013-02-05 11:36:00,52.7,42.8,29.67,NNW,341,6.0,9.0,69,0.00,,,0.00,VWS V14.01,2013-02-05 19:36:00,
2013-02-05 11:41:00,52.6,42.7,29.67,NNW,341,8.0,9.0,69,0.00,,,0.00,VWS V14.01,2013-02-05 19:41:00,
2013-02-05 11:46:00,52.5,42.6,29.67,NNW,342,9.0,9.0,69,0.00,,,0.00,VWS V14.01,2013-02-05 19:46:00,
2013-02-05 11:51:00,52.2,42.3,29.67,NNW,330,5.0,13.0,69,0.00,,,0.00,VWS V14.01,2013-02-05 19:51:00,
2013-02-05 11:56:00,52.2,43.1,29.67,NNW,331,3.0,13.0,71,0.00,,,0.00,VWS V14.01,2013-02-05 19:56:00,
2013-02-05 12:00:00,45.7,43.8,29.74,NNW,338,0.0,2.0,93,0.00,,,0.00,VWS V14.01,2013-02-05 20:00:00,
2013-02-05 12:01:00,52.3,42.5,29.67,NNW,330,5.0,13.0,69,0.00,,,0.00,VWS V14.01,2013-02-05 20:01:00,
2013-02-05 12:06:00,52.6,43.1,29.67,NNW,331,3.0,13.0,70,0.00,,,0.00,VWS V14.01,2013-02-05 20:06:00,
2013-02-05 12:11:00,52.9,43.0,29.66,NNW,330,2.0,13.0,69,0.00,,,0.00,VWS V14.01,2013-02-05 20:11:00,
2013-02-05 12:16:00,53.3,43.0,29.66,NNW,334,5.0,13.0,68,0.00,,,0.00,VWS V14.01,2013-02-05 20:16:00,
2013-02-05 12:21:00,53.5,43.2,29.65,NNW,341,5.0,13.0,68,0.00,,,0.00,VWS V14.01,2013-02-05 20:21:00,
2013-02-05 12:26:00,54.0,43.3,29.65,NNW,337,3.0,13.0,67,0.00,,,0.00,VWS V14.01,2013-02-05 20:26:00,
2013-02-05 12:30:00,46.4,44.5,29.74,NNW,338,0.0,2.0,93,0.00,,,0.00,VWS V14.01,2013-02-05 20:30:00,
2013-02-05 12:31:00,54.2,43.5,29.65,NNW,332,3.0,13.0,67,0.00,,,0.00,VWS V14.01,2013-02-05 20:31:00,
2013-02-05 12:36:00,54.9,43.8,29.65,NNW,330,5.0,13.0,66,0.00,,,0.01,VWS V14.01,2013-02-05 20:36:00,
2013-02-05 12:41:00,55.2,44.0,29.65,NW,323,4.0,13.0,66,0.00,,,0.00,VWS V14.01,2013-02-05 20:41:00,
2013-02-05 12:46:00,55.6,44.0,29.65,NW,325,6.0,13.0,65,0.00,,,0.00,VWS V14.01,2013-02-05 20:46:00,
2013-02-05 12:51:00,55.5,43.5,29.64,NW,322,8.0,13.0,64,0.00,,,0.00,VWS V14.01,2013-02-05 20:51:00,
2013-02-05 12:56:00,55.4,43.4,29.64,NW,326,7.0,13.0,64,0.00,,,0.00,VWS V14.01,2013-02-05 20:56:00,
2013-02-05 13:00:00,47.2,45.0,29.72,NNW,338,0.0,2.0,92,0.00,,,0.00,VWS V14.01,2013-02-05 21:00:00,
2013-02-05 13:01:00,55.3,43.8,29.64,NW,324,6.0,13.0,65,0.00,,,0.00,VWS V14.01,2013-02-05 21:01:00,
2013-02-05 13:06:00,55.5,43.9,29.64,NNW,335,7.0,13.0,65,0.00,,,0.00,VWS V14.01,2013-02-05 21:06:00,
2013-02-05 13:11:00,55.6,44.0,29.64,NNW,329,6.0,13.0,65,0.00,,,0.00,VWS V14.01,2013-02-05 21:11:00,
2013-02-05 13:16:00,55.7,44.1,29.64,NW,323,7.0,13.0,65,0.00,,,0.00,VWS V14.01,2013-02-05 21:16:00,
2013-02-05 13:21:00,55.3,43.8,29.64,NNW,332,6.0,13.0,65,0.00,,,0.00,VWS V14.01,2013-02-05 21:21:00,
2013-02-05 13:26:00,55.0,43.9,29.64,NNW,335,3.0,13.0,66,0.00,,,0.00,VWS V14.01,2013-02-05 21:26:00,
2013-02-05 13:30:00,48.0,44.6,29.71,NNW,338,0.0,3.0,88,0.00,,,0.00,VWS V14.01,2013-02-05 21:30:00,
2013-02-05 13:31:00,55.2,44.0,29.64,NNW,333,5.0,13.0,66,0.00,,,0.00,VWS V14.01,2013-02-05 21:31:00,
2013-02-05 13:36:00,55.6,44.4,29.64,NNW,327,2.0,13.0,66,0.00,,,0.00,VWS V14.01,2013-02-05 21:36:00,
2013-02-05 13:41:00,55.4,43.8,29.63,NNW,327,4.0,13.0,65,0.00,,,0.00,VWS V14.01,2013-02-05 21:41:00,
2013-02-05 13:46:00,55.1,44.0,29.64,NNW,330,6.0,13.0,66,0.00,,,0.00,VWS V14.01,2013-02-05 21:46:00,
2013-02-05 13:51:00,55.2,44.0,29.64,NNW,328,8.0,13.0,66,0.00,,,0.00,VWS V14.01,2013-02-05 21:51:00,
2013-02-05 13:56:00,55.1,43.6,29.64,NW,323,4.0,13.0,65,0.00,,,0.00,VWS V14.01,2013-02-05 21:56:00,
2013-02-05 14:00:00,49.2,44.9,29.70,NNW,338,1.0,6.0,85,0.00,,,0.00,VWS V14.01,2013-02-05 22:00:00,
2013-02-05 14:01:00,54.8,43.7,29.64,NW,325,7.0,13.0,66,0.00,,,0.00,VWS V14.01,2013-02-05 22:01:00,
2013-02-05 14:06:00,54.5,43.8,29.64,NW,325,10.0,13.0,67,0.00,,,0.00,VWS V14.01,2013-02-05 22:06:00,
2013-02-05 14:12:00,54.3,43.6,29.64,NW,323,5.0,13.0,67,0.00,,,0.00,VWS V14.01,2013-02-05 22:12:00,
2013-02-05 14:17:00,54.1,43.4,29.63,NNW,339,9.0,13.0,67,0.00,,,0.00,VWS V14.01,2013-02-05 22:17:00,
2013-02-05 14:22:00,54.1,43.8,29.63,NNW,336,2.0,13.0,68,0.00,,,0.00,VWS V14.01,2013-02-05 22:22:00,
2013-02-05 14:27:00,54.6,43.9,29.64,NNW,330,4.0,13.0,67,0.00,,,0.00,VWS V14.01,2013-02-05 22:27:00,
2013-02-05 14:30:00,52.0,45.0,29.68,NNW,338,1.0,6.0,77,0.00,,,0.00,VWS V14.01,2013-02-05 22:30:00,
2013-02-05 14:32:00,55.0,44.3,29.63,NW,323,7.0,13.0,67,0.00,,,0.00,VWS V14.01,2013-02-05 22:32:00,
2013-02-05 14:37:00,55.2,43.7,29.63,NNW,338,3.0,13.0,65,0.00,,,0.00,VWS V14.01,2013-02-05 22:37:00,
2013-02-05 14:42:00,55.7,44.5,29.63,NNW,342,3.0,13.0,66,0.00,,,0.00,VWS V14.01,2013-02-05 22:42:00,
2013-02-05 14:47:00,56.2,44.2,29.63,NNW,327,5.0,13.0,64,0.00,,,0.00,VWS V14.01,2013-02-05 22:47:00,
2013-02-05 14:52:00,56.2,44.2,29.63,NW,326,4.0,13.0,64,0.00,,,0.00,VWS V14.01,2013-02-05 22:52:00,
2013-02-05 14:57:00,56.0,44.4,29.63,NNW,327,4.0,13.0,65,0.00,,,0.00,VWS V14.01,2013-02-05 22:57:00,
2013-02-05 15:00:00,54.8,45.2,29.67,NNW,338,1.0,5.0,70,0.00,,,0.00,VWS V14.01,2013-02-05 23:00:00,
2013-02-05 15:02:00,56.1,44.5,29.63,NW,326,4.0,13.0,65,0.00,,,0.00,VWS V14.01,2013-02-05 23:02:00,
2013-02-05 15:07:00,55.8,44.2,29.63,NNW,328,8.0,13.0,65,0.00,,,0.00,VWS V14.01,2013-02-05 23:07:00,
2013-02-05 15:12:00,55.8,44.6,29.63,NNW,346,3.0,13.0,66,0.00,,,0.00,VWS V14.01,2013-02-05 23:12:00,
2013-02-05 15:17:00,55.9,44.3,29.63,NW,318,4.0,13.0,65,0.00,,,0.00,VWS V14.01,2013-02-05 23:17:00,
2013-02-05 15:22:00,55.9,44.3,29.63,NW,314,5.0,13.0,65,0.00,,,0.00,VWS V14.01,2013-02-05 23:22:00,
2013-02-05 15:27:00,55.8,44.6,29.63,NW,325,6.0,13.0,66,0.00,,,0.00,VWS V14.01,2013-02-05 23:27:00,
2013-02-05 15:30:00,57.2,46.4,29.65,SE,135,0.0,4.0,67,0.00,,,0.00,VWS V14.01,2013-02-05 23:30:00,
2013-02-05 15:32:00,55.8,44.2,29.63,NNW,336,5.0,13.0,65,0.00,,,0.00,VWS V14.01,2013-02-05 23:32:00,
2013-02-05 15:37:00,55.7,44.5,29.63,NNW,340,10.0,13.0,66,0.00,,,0.00,VWS V14.01,2013-02-05 23:37:00,
2013-02-05 15:42:00,55.6,44.0,29.63,NNW,330,7.0,14.0,65,0.00,,,0.00,VWS V14.01,2013-02-05 23:42:00,
2013-02-05 15:47:00,55.3,43.8,29.64,NW,321,5.0,14.0,65,0.00,,,0.00,VWS V14.01,2013-02-05 23:47:00,
2013-02-05 15:52:00,55.1,43.6,29.63,NW,324,7.0,14.0,65,0.00,,,0.00,VWS V14.01,2013-02-05 23:52:00,
2013-02-05 15:57:00,55.2,44.0,29.64,NNW,327,10.0,14.0,66,0.00,,,0.00,VWS V14.01,2013-02-05 23:57:00,
2013-02-05 16:00:00,57.4,47.3,29.64,SE,135,0.0,5.0,69,0.00,,,0.00,VWS V14.01,2013-02-06 00:00:00,
2013-02-05 16:02:00,55.1,44.0,29.64,NNW,330,3.0,14.0,66,0.00,,,0.00,VWS V14.01,2013-02-06 00:02:00,
2013-02-05 16:07:00,55.0,43.9,29.63,NW,321,6.0,14.0,66,0.00,,,0.00,VWS V14.01,2013-02-06 00:07:00,
2013-02-05 16:12:00,54.8,44.1,29.64,NW,323,7.0,14.0,67,0.00,,,0.00,VWS V14.01,2013-02-06 00:12:00,
2013-02-05 16:17:00,54.7,44.0,29.63,NW,326,6.0,14.0,67,0.00,,,0.00,VWS V14.01,2013-02-06 00:17:00,
2013-02-05 16:22:00,54.4,44.1,29.64,NW,326,11.0,14.0,68,0.00,,,0.00,VWS V14.01,2013-02-06 00:22:00,
2013-02-05 16:27:00,54.3,44.0,29.64,NW,325,11.0,14.0,68,0.00,,,0.00,VWS V14.01,2013-02-06 00:27:00,
2013-02-05 16:30:00,55.6,47.1,29.65,SSE,158,2.0,7.0,73,0.00,,,0.00,VWS V14.01,2013-02-06 00:30:00,
2013-02-05 16:32:00,54.0,44.1,29.64,NW,325,8.0,14.0,69,0.00,,,0.00,VWS V14.01,2013-02-06 00:32:00,
2013-02-05 16:37:00,53.6,43.7,29.65,NW,321,8.0,14.0,69,0.00,,,0.00,VWS V14.01,2013-02-06 00:37:00,
2013-02-05 16:42:00,53.3,43.8,29.65,NNW,330,4.0,14.0,70,0.00,,,0.00,VWS V14.01,2013-02-06 00:42:00,
2013-02-05 16:47:00,53.0,43.9,29.65,NW,325,5.0,14.0,71,0.00,,,0.00,VWS V14.01,2013-02-06 00:47:00,
2013-02-05 16:52:00,52.6,43.8,29.65,NW,319,6.0,14.0,72,0.00,,,0.00,VWS V14.01,2013-02-06 00:52:00,
2013-02-05 16:57:00,52.3,43.9,29.65,NNW,327,4.0,14.0,73,0.00,,,0.00,VWS V14.01,2013-02-06 00:57:00,
2013-02-05 17:00:00,54.2,45.8,29.65,SSE,158,2.0,7.0,73,0.00,,,0.00,VWS V14.01,2013-02-06 01:00:00,
2013-02-05 17:02:00,52.1,43.7,29.65,NNW,332,4.0,14.0,73,0.00,,,0.00,VWS V14.01,2013-02-06 01:02:00,
2013-02-05 17:07:00,52.0,44.0,29.65,NNW,341,6.0,14.0,74,0.00,,,0.00,VWS V14.01,2013-02-06 01:07:00,
2013-02-05 17:12:00,51.8,44.1,29.65,NNW,338,3.0,14.0,75,0.00,,,0.00,VWS V14.01,2013-02-06 01:12:00,
2013-02-05 17:17:00,51.6,44.0,29.65,NNW,344,6.0,14.0,75,0.00,,,0.00,VWS V14.01,2013-02-06 01:17:00,
2013-02-05 17:22:00,51.4,44.1,29.65,NNW,341,4.0,14.0,76,0.00,,,0.00,VWS V14.01,2013-02-06 01:22:00,
2013-02-05 17:27:00,51.2,43.9,29.65,NNW,341,3.0,14.0,76,0.00,,,0.00,VWS V14.01,2013-02-06 01:27:00,
2013-02-05 17:30:00,54.0,46.3,29.65,SSE,158,2.0,6.0,75,0.00,,,0.00,VWS V14.01,2013-02-06 01:30:00,
2013-02-05 17:32:00,51.0,44.0,29.65,NNW,341,3.0,14.0,77,0.00,,,0.00,VWS V14.01,2013-02-06 01:32:00,
2013-02-05 17:37:00,50.9,44.0,29.66,NNW,341,4.0,14.0,77,0.00,,,0.00,VWS V14.01,2013-02-06 01:37:00,
2013-02-05 17:42:00,50.7,44.1,29.66,NNW,341,5.0,14.0,78,0.00,,,0.00,VWS V14.01,2013-02-06 01:42:00,
2013-02-05 17:47:00,50.6,44.0,29.65,NNW,341,1.0,14.0,78,0.00,,,0.00,VWS V14.01,2013-02-06 01:47:00,
2013-02-05 17:52:00,50.4,43.8,29.65,NNW,341,3.0,14.0,78,0.00,,,0.00,VWS V14.01,2013-02-06 01:52:00,
2013-02-05 17:57:00,50.2,43.6,29.66,NNW,340,3.0,14.0,78,0.00,,,0.00,VWS V14.01,2013-02-06 01:57:00,
2013-02-05 18:00:00,52.8,45.8,29.65,SSE,158,1.0,4.0,77,0.00,,,0.00,VWS V14.01,2013-02-06 02:00:00,
2013-02-05 18:02:00,50.1,43.8,29.65,NNW,340,3.0,14.0,79,0.00,,,0.00,VWS V14.01,2013-02-06 02:02:00,
2013-02-05 18:07:00,50.0,43.8,29.65,NNW,340,2.0,14.0,79,0.00,,,0.00,VWS V14.01,2013-02-06 02:07:00,
2013-02-05 18:12:00,49.9,43.7,29.65,NNW,339,4.0,14.0,79,0.00,,,0.00,VWS V14.01,2013-02-06 02:12:00,
2013-02-05 18:17:00,49.7,43.8,29.66,NNW,338,2.0,14.0,80,0.00,,,0.00,VWS V14.01,2013-02-06 02:17:00,
2013-02-05 18:22:00,49.6,43.7,29.65,NNW,338,4.0,14.0,80,0.00,,,0.00,VWS V14.01,2013-02-06 02:22:00,
2013-02-05 18:27:00,49.5,43.6,29.66,NNW,338,4.0,14.0,80,0.00,,,0.00,VWS V14.01,2013-02-06 02:27:00,
2013-02-05 18:30:00,51.6,45.6,29.64,SSE,158,2.0,5.0,80,0.00,,,0.00,VWS V14.01,2013-02-06 02:30:00,
2013-02-05 18:32:00,49.4,43.5,29.66,NNW,338,3.0,14.0,80,0.00,,,0.00,VWS V14.01,2013-02-06 02:32:00,
2013-02-05 18:37:00,49.2,43.3,29.66,NNW,337,4.0,14.0,80,0.00,,,0.00,VWS V14.01,2013-02-06 02:37:00,
2013-02-05 18:42:00,49.1,43.2,29.66,NNW,336,4.0,14.0,80,0.00,,,0.00,VWS V14.01,2013-02-06 02:42:00,
2013-02-05 18:47:00,48.8,42.9,29.66,NNW,336,3.0,14.0,80,0.00,,,0.00,VWS V14.01,2013-02-06 02:47:00,
2013-02-05 18:52:00,48.7,43.1,29.66,NNW,336,4.0,14.0,81,0.00,,,0.00,VWS V14.01,2013-02-06 02:52:00,
2013-02-05 18:57:00,48.6,43.0,29.67,NNW,336,5.0,14.0,81,0.00,,,0.00,VWS V14.01,2013-02-06 02:57:00,
2013-02-05 19:00:00,50.5,45.2,29.63,SSE,158,0.0,3.0,82,0.00,,,0.00,VWS V14.01,2013-02-06 03:00:00,
2013-02-05 19:03:00,48.5,43.0,29.66,NNW,336,5.0,14.0,81,0.00,,,0.00,VWS V14.01,2013-02-06 03:03:00,
2013-02-05 19:08:00,48.4,42.8,29.66,NNW,334,3.0,14.0,81,0.00,,,0.00,VWS V14.01,2013-02-06 03:08:00,
2013-02-05 19:13:00,48.4,42.5,29.67,NNW,335,4.0,14.0,80,0.00,,,0.00,VWS V14.01,2013-02-06 03:13:00,
2013-02-05 19:18:00,48.2,42.3,29.67,NNW,331,4.0,14.0,80,0.00,,,0.00,VWS V14.01,2013-02-06 03:18:00,
2013-02-05 19:23:00,48.3,42.4,29.67,NNW,330,4.0,14.0,80,0.00,,,0.00,VWS V14.01,2013-02-06 03:23:00,
2013-02-05 19:28:00,48.2,42.3,29.67,NNW,330,3.0,14.0,80,0.00,,,0.00,VWS V14.01,2013-02-06 03:28:00,
2013-02-05 19:30:00,49.7,44.8,29.64,SSE,158,0.0,0.0,83,0.00,,,0.00,VWS V14.01,2013-02-06 03:30:00,
2013-02-05 19:33:00,48.1,42.2,29.67,NNW,331,2.0,14.0,80,0.00,,,0.00,VWS V14.01,2013-02-06 03:33:00,
2013-02-05 19:38:00,47.9,42.0,29.67,NNW,331,1.0,14.0,80,0.00,,,0.00,VWS V14.01,2013-02-06 03:38:00,
2013-02-05 19:43:00,47.9,42.4,29.68,NNW,331,3.0,14.0,81,0.00,,,0.00,VWS V14.01,2013-02-06 03:43:00,
2013-02-05 19:48:00,47.8,42.3,29.68,NNW,331,0.0,14.0,81,0.00,,,0.00,VWS V14.01,2013-02-06 03:48:00,
2013-02-05 19:53:00,47.7,42.2,29.68,NNW,334,3.0,14.0,81,0.00,,,0.00,VWS V14.01,2013-02-06 03:53:00,
2013-02-05 19:58:00,47.7,42.2,29.68,NNW,334,4.0,14.0,81,0.00,,,0.00,VWS V14.01,2013-02-06 03:58:00,
2013-02-05 20:00:00,48.6,44.3,29.64,SSE,158,1.0,5.0,85,0.00,,,0.00,VWS V14.01,2013-02-06 04:00:00,
2013-02-05 20:03:00,47.6,42.1,29.68,NNW,334,4.0,14.0,81,0.00,,,0.00,VWS V14.01,2013-02-06 04:03:00,
2013-02-05 20:08:00,47.5,42.3,29.68,NNW,338,3.0,14.0,82,0.00,,,0.01,VWS V14.01,2013-02-06 04:08:00,
2013-02-05 20:13:00,47.5,42.3,29.68,NNW,340,3.0,14.0,82,0.00,,,0.00,VWS V14.01,2013-02-06 04:13:00,
2013-02-05 20:18:00,47.4,42.2,29.69,NNW,343,2.0,14.0,82,0.00,,,0.00,VWS V14.01,2013-02-06 04:18:00,
2013-02-05 20:23:00,47.4,42.2,29.68,NNW,342,3.0,14.0,82,0.00,,,0.00,VWS V14.01,2013-02-06 04:23:00,
2013-02-05 20:28:00,47.4,42.2,29.68,NNW,342,3.0,14.0,82,0.00,,,0.00,VWS V14.01,2013-02-06 04:28:00,
2013-02-05 20:30:00,47.1,42.8,29.65,NW,315,3.0,8.0,85,0.00,,,0.00,VWS V14.01,2013-02-06 04:30:00,
2013-02-05 20:33:00,47.5,42.3,29.69,NNW,342,2.0,14.0,82,0.00,,,0.00,VWS V14.01,2013-02-06 04:33:00,
2013-02-05 20:38:00,47.5,42.3,29.68,NNW,342,5.0,14.0,82,0.00,,,0.00,VWS V14.01,2013-02-06 04:38:00,
2013-02-05 20:43:00,47.5,42.3,29.69,NW,326,6.0,14.0,82,0.00,,,0.00,VWS V14.01,2013-02-06 04:43:00,
2013-02-05 20:48:00,47.6,42.4,29.69,NNW,342,6.0,14.0,82,0.00,,,0.00,VWS V14.01,2013-02-06 04:48:00,
2013-02-05 20:53:00,47.7,42.2,29.69,North,349,4.0,14.0,81,0.00,,,0.00,VWS V14.01,2013-02-06 04:53:00,
2013-02-05 20:58:00,47.7,42.2,29.69,NNW,344,3.0,14.0,81,0.00,,,0.00,VWS V14.01,2013-02-06 04:58:00,
2013-02-05 21:00:00,45.8,41.6,29.65,NNW,338,4.0,8.0,85,0.00,,,0.00,VWS V14.01,2013-02-06 05:00:00,
2013-02-05 21:03:00,47.7,42.2,29.69,NNW,345,3.0,14.0,81,0.00,,,0.00,VWS V14.01,2013-02-06 05:03:00,
2013-02-05 21:08:00,47.6,42.1,29.69,North,351,5.0,14.0,81,0.00,,,0.00,VWS V14.01,2013-02-06 05:08:00,
2013-02-05 21:13:00,47.5,41.7,29.69,NNW,333,3.0,14.0,80,0.00,,,0.00,VWS V14.01,2013-02-06 05:13:00,
2013-02-05 21:18:00,47.5,41.7,29.69,NNW,336,4.0,14.0,80,0.00,,,0.00,VWS V14.01,2013-02-06 05:18:00,
2013-02-05 21:23:00,47.5,41.3,29.69,NNW,337,4.0,14.0,79,0.00,,,0.00,VWS V14.01,2013-02-06 05:23:00,
2013-02-05 21:28:00,47.6,41.4,29.69,NNW,339,3.0,14.0,79,0.00,,,0.00,VWS V14.01,2013-02-06 05:28:00,
2013-02-05 21:30:00,44.9,41.0,29.65,NNW,338,3.0,5.0,86,0.00,,,0.00,VWS V14.01,2013-02-06 05:30:00,
2013-02-05 21:33:00,47.4,41.2,29.69,NNW,339,5.0,14.0,79,0.00,,,0.00,VWS V14.01,2013-02-06 05:33:00,
2013-02-05 21:38:00,47.4,41.2,29.69,NNW,339,4.0,14.0,79,0.00,,,0.00,VWS V14.01,2013-02-06 05:38:00,
2013-02-05 21:43:00,47.3,41.5,29.69,NNW,343,2.0,14.0,80,0.00,,,0.00,VWS V14.01,2013-02-06 05:43:00,
2013-02-05 21:48:00,47.3,41.5,29.69,North,350,2.0,14.0,80,0.00,,,0.00,VWS V14.01,2013-02-06 05:48:00,
2013-02-05 21:53:00,47.2,41.4,29.69,NNW,337,7.0,14.0,80,0.00,,,0.00,VWS V14.01,2013-02-06 05:53:00,
2013-02-05 21:58:00,47.1,41.6,29.69,NNW,331,4.0,14.0,81,0.00,,,0.00,VWS V14.01,2013-02-06 05:58:00,
2013-02-05 22:00:00,44.3,40.4,29.66,NNW,338,2.0,5.0,86,0.00,,,0.00,VWS V14.01,2013-02-06 06:00:00,
2013-02-05 22:03:00,47.1,41.6,29.69,NNW,346,4.0,14.0,81,0.00,,,0.00,VWS V14.01,2013-02-06 06:03:00,
2013-02-05 22:08:00,47.1,41.6,29.69,NNW,335,7.0,14.0,81,0.00,,,0.00,VWS V14.01,2013-02-06 06:08:00,
2013-02-05 22:13:00,47.0,41.5,29.69,NW,322,9.0,14.0,81,0.00,,,0.00,VWS V14.01,2013-02-06 06:13:00,
2013-02-05 22:18:00,47.2,41.4,29.69,NW,325,7.0,14.0,80,0.00,,,0.00,VWS V14.01,2013-02-06 06:18:00,
2013-02-05 22:23:00,47.3,41.5,29.69,NNW,327,9.0,14.0,80,0.00,,,0.00,VWS V14.01,2013-02-06 06:23:00,
2013-02-05 22:28:00,47.3,41.1,29.70,NNW,328,9.0,14.0,79,0.00,,,0.00,VWS V14.01,2013-02-06 06:28:00,
2013-02-05 22:30:00,44.5,40.3,29.66,NNW,338,3.0,6.0,85,0.00,,,0.00,VWS V14.01,2013-02-06 06:30:00,
2013-02-05 22:33:00,47.3,41.1,29.69,NW,325,7.0,14.0,79,0.00,,,0.00,VWS V14.01,2013-02-06 06:33:00,
2013-02-05 22:38:00,47.2,41.0,29.69,NW,323,6.0,14.0,79,0.00,,,0.00,VWS V14.01,2013-02-06 06:38:00,
2013-02-05 22:43:00,47.1,41.3,29.69,NW,326,8.0,14.0,80,0.00,,,0.00,VWS V14.01,2013-02-06 06:43:00,
2013-02-05 22:48:00,47.0,40.8,29.69,NNW,327,4.0,14.0,79,0.00,,,0.00,VWS V14.01,2013-02-06 06:48:00,
2013-02-05 22:53:00,46.9,40.7,29.69,NNW,338,6.0,14.0,79,0.00,,,0.00,VWS V14.01,2013-02-06 06:53:00,
2013-02-05 22:58:00,46.8,40.6,29.70,NNW,340,3.0,14.0,79,0.00,,,0.00,VWS V14.01,2013-02-06 06:58:00,
2013-02-05 23:00:00,44.2,40.0,29.65,NNW,338,0.0,2.0,85,0.00,,,0.00,VWS V14.01,2013-02-06 07:00:00,
2013-02-05 23:03:00,46.7,40.2,29.70,NNW,335,5.0,14.0,78,0.00,,,0.00,VWS V14.01,2013-02-06 07:03:00,
2013-02-05 23:08:00,46.7,40.5,29.70,NNW,345,3.0,14.0,79,0.00,,,0.00,VWS V14.01,2013-02-06 07:08:00,
2013-02-05 23:13:00,46.6,40.1,29.70,NNW,336,3.0,14.0,78,0.00,,,0.00,VWS V14.01,2013-02-06 07:13:00,
2013-02-05 23:18:00,46.5,40.0,29.70,NNW,333,3.0,14.0,78,0.00,,,0.00,VWS V14.01,2013-02-06 07:18:00,
2013-02-05 23:23:00,46.5,40.0,29.70,NNW,333,7.0,14.0,78,0.00,,,0.00,VWS V14.01,2013-02-06 07:23:00,
2013-02-05 23:28:00,46.6,40.1,29.70,NNW,327,6.0,14.0,78,0.00,,,0.00,VWS V14.01,2013-02-06 07:28:00,
2013-02-05 23:30:00,43.6,39.7,29.66,NNW,338,1.0,3.0,86,0.00,,,0.00,VWS V14.01,2013-02-06 07:30:00,
2013-02-05 23:33:00,46.5,40.0,29.70,NNW,334,2.0,14.0,78,0.00,,,0.00,VWS V14.01,2013-02-06 07:33:00,
2013-02-05 23:38:00,46.6,40.1,29.71,NNW,343,6.0,14.0,78,0.00,,,0.00,VWS V14.01,2013-02-06 07:38:00,
2013-02-05 23:43:00,46.5,40.0,29.71,NNW,338,5.0,14.0,78,0.00,,,0.00,VWS V14.01,2013-02-06 07:43:00,
2013-02-05 23:48:00,46.4,39.9,29.71,North,349,4.0,14.0,78,0.00,,,0.00,VWS V14.01,2013-02-06 07:48:00,
2013-02-05 23:53:00,46.3,39.8,29.71,NNW,332,4.0,14.0,78,0.00,,,0.00,VWS V14.01,2013-02-06 07:53:00,
2013-02-05 23:58:00,46.2,39.4,29.71,NW,324,5.0,14.0,77,0.00,,,0.00,VWS V14.01,2013-02-06 07:58:00,